Orbital Elements at Epoch 2459000.5 (2020-May-31.0) TDB
Reference: JPL 21 (heliocentric ecliptic J2000)
Element | Value | Uncertainty (1-sigma) | Units |
e | .2702344045000927 | 7.4503e-08 | |
a | 2.579951196740415 | 2.5966e-08 | au |
q | 1.882759621449968 | 2.0499e-07 | au |
i | 6.327028524586197 | 5.9131e-06 | deg |
node | 17.92582807678632 | 2.8585e-05 | deg |
peri | 350.081584832036 | 3.1149e-05 | deg |
M | 59.03100998227504 | 7.4739e-06 | deg |
tp | 2458752.304801205393 (2019-Sep-25.80480121) | 3.3254e-05 | TDB |
period | 1513.615836708319 4.14 | 2.2851e-05 6.256e-08 | d yr |
n | .2378410632798985 | 3.5907e-09 | deg/d |
Q | 3.277142772030862 | 3.2983e-08 | au |
|
| | Orbit Determination Parameters
Additional Information
|